Location: Goettingen
(51.5300°N, 9.9433°E)
Time: 20:42:27
(UTC+02:00)

ISS - Pass Details

Date: 17 September 2021
Orbit: 419 x 423 km, 51.6° (Epoch: 20 September)

Event Time Altitude Azimuth Distance (km) Brightness Sun altitude
Rises 21:37:23 0° 232° (SW) 2,358 0.3 -19.7°
Reaches altitude 10° 21:39:33 10° 225° (SW) 1,498 -0.8 -20.0°
Enters shadow 21:41:04 23° 211° (SSW) 947 -2.0 -20.2°
